Simultaneous Nadir Overpasses (SNOs) Predictions

Prediction of SNOs between LANDSAT-8 and METOP-B Satellite Orbit:

Table of predicted SNOs for the next 14.0 days since TLE Epoch: 4/25/2020
Index Date (LANDSAT-8) Time (LANDSAT-8) Lat,Lon (LANDSAT-8) SZA (LANDSAT-8 ) Date (METOP-B) Time (METOP-B) Lat,Lon (METOP-B) SZA (METOP-B ) Distance(km) Time Diff (sec)
1 04/27/2020 11:07:15 81.10, 52.17 69.13 04/27/2020 11:06:57 81.10, 52.34 69.14 3.03 18
2 04/27/2020 11:56:41 -81.13,-139.84 110.83 04/27/2020 11:57:36 -81.13,-139.73 110.80 1.78 55
3 04/30/2020 06:41:29 81.10, 118.50 68.25 04/30/2020 06:41:20 81.10, 118.58 68.26 1.42 9
4 04/30/2020 07:30:55 -81.12, -73.47 111.70 04/30/2020 07:31:59 -81.12, -73.45 111.67 0.29 64
5 05/03/2020 01:26:21 -80.99, 15.79 112.80 05/03/2020 01:25:07 -81.02, 15.70 112.82 3.77 74
6 05/03/2020 02:15:43 81.09,-175.18 67.41 05/03/2020 02:15:43 81.09,-175.19 67.41 0.53 0
7 05/03/2020 03:05:09 -81.12, -7.13 112.55 05/03/2020 03:06:22 -81.12, -7.19 112.52 1.05 73
8 05/05/2020 21:00:30 -81.08, 83.53 113.40 05/05/2020 20:59:25 -81.07, 83.43 113.44 1.91 65
9 05/05/2020 21:49:55 81.10,-108.53 66.64 05/05/2020 21:50:04 81.10,-108.61 66.64 1.48 9
10 05/08/2020 16:34:44 -81.07, 149.82 114.18 05/08/2020 16:33:48 -81.07, 149.66 114.23 2.77 56




NCC Satellite Simultaneous Nadir Overpasses (SNOs) Prediction Service
